Location: Unspecified
(0.0000°N, 0.0000°E)
Time: 05:34:36
(UTC+02:00)

Resurs 01 Rocket - Visible Passes

Search period start: 26 May 2015 00:00
Search period end: 05 June 2015 00:00
Orbit: 636 x 645 km, 98.2° (Epoch: 25 May)

Date Brightness Start Highest point End Pass type
(mag) Time Alt. Az. Time Alt. Az. Time Alt. Az.
26 May 1.7 20:15:44 10° SSE 20:20:05 62° ENE 20:24:26 10° N visible
27 May 2.2 20:39:12 10° S 20:43:33 60° WSW 20:47:52 10° NNW visible
28 May 3.7 21:03:14 10° SSW 21:07:02 27° W 21:10:44 10° NW visible
29 May 4.5 21:28:20 10° SW 21:30:34 13° W 21:32:31 10° WNW visible
31 May 2.0 20:36:45 10° S 20:41:07 66° WSW 20:45:28 10° NNW visible
01 Jun 3.5 21:00:42 10° SSW 21:04:35 30° WSW 21:08:25 10° NW visible
02 Jun 4.4 21:25:34 10° SW 21:28:07 15° W 21:30:26 10° WNW visible
04 Jun 1.9 20:34:17 10° S 20:38:41 74° WSW 20:43:04 10° NNW visible
